This demonstration page uses our WeatherBlox Daily Observations layout. Learn more.

38.89511, -77.03637

Hourly Observations for September 10, 2015

Temp ( °F °C ) Dew Point ( °F °C ) Humidity (%) Winds ( mph kmh ) Pressure ( in mb ) Visibility ( mi km ) Precip ( " mm )
12:52 am 00:52 Mostly Cloudy 79 26 73 23 84 84 S 5 7 29.83 1010 10 16.09344 0 0
1:52 am 01:52 Mostly Cloudy 79 26 73 23 84 84 SSW 3 6 29.83 1010 10 16.09344 0 0
2:08 am 02:08 Mostly Cloudy 79 26 72 22 79 79 S 5 7 29.83 1010 10 16.09344 0 0
2:52 am 02:52 Cloudy 79 26 73 23 84 84 SSW 9 15 29.83 1010 10 16.09344 0 0
3:52 am 03:52 Mostly Clear with Light Rain 77 25 72 22 83 83 WSW 12 19 29.83 1010 10 16.09344 0.001 0.001
4:24 am 04:24 Cloudy with Rain 75 24 72 22 89 89 WSW 6 9 29.83 1010 6 9.656064 0 0
4:52 am 04:52 Cloudy with Light Rain 75 24 72 22 89 89 NW 9 15 29.8 1009 10 16.09344 0.09 2.286
5:31 am 05:31 Mostly Cloudy 75 24 72 22 89 89 WSW 3 6 29.8 1009 10 16.09344 0.01 0.254
5:52 am 05:52 Mostly Cloudy 75 24 72 22 89 89 N 3 6 29.8 1009 10 16.09344 0.01 0.254
6:52 am 06:52 Mostly Cloudy 75 24 72 22 89 89 Calm 29.8 1009 10 16.09344 0.001 0.001
7:52 am 07:52 Mostly Cloudy 75 24 72 22 89 89 WSW 6 9 29.83 1010 10 16.09344 0 0
8:19 am 08:19 Mostly Cloudy 75 24 72 22 89 89 SW 5 7 29.83 1010 10 16.09344 0 0
8:52 am 08:52 Cloudy 75 24 72 22 89 89 W 5 7 29.83 1010 10 16.09344 0 0
9:40 am 09:40 Mostly Cloudy 77 25 72 22 83 83 SE 3 6 29.83 1010 10 16.09344 0 0
9:52 am 09:52 Mostly Cloudy 77 25 72 22 83 83 S 6 9 29.83 1010 10 16.09344 0 0
10:33 am 10:33 Mostly Cloudy 79 26 73 23 84 84 SSE 5 7 29.8 1009 10 16.09344 0 0
10:45 am 10:45 Mostly Cloudy 81 27 72 22 74 74 SSW 3 6 29.8 1009 10 16.09344 0 0
10:52 am 10:52 Mostly Cloudy 81 27 72 22 74 74 Calm 29.8 1009 10 16.09344 0 0
11:31 am 11:31 Mostly Cloudy 82 28 72 22 70 70 SSW 5 7 29.8 1009 10 16.09344 0 0
12:52 pm 12:52 Cloudy 84 29 72 22 66 66 WSW 9 15 29.77 1008 10 16.09344 0 0
1:52 pm 13:52 Cloudy 82 28 72 22 70 70 WNW 14 22 29.77 1008 10 16.09344 0 0
2:06 pm 14:06 Cloudy 79 26 70 21 74 74 NW 12 19 29.77 1008 10 16.09344 0 0
2:52 pm 14:52 Cloudy with Light Rain 77 25 70 21 79 79 NW 14 22 29.77 1008 10 16.09344 0.001 0.001
2:59 pm 14:59 Cloudy with Light Rain 75 24 70 21 83 83 NNW 12 19 29.77 1008 10 16.09344 0.001 0.001
3:39 pm 15:39 Mostly Cloudy 75 24 70 21 83 83 NNW 14 22 29.74 1007 10 16.09344 0.01 0.254
3:52 pm 15:52 Mostly Cloudy 75 24 70 21 83 83 N 16 26 29.74 1007 10 16.09344 0.01 0.254
4:34 pm 16:34 Cloudy 79 26 70 21 74 74 N 12 19 29.74 1007 10 16.09344 0 0
4:52 pm 16:52 Cloudy 79 26 70 21 74 74 N 8 13 29.74 1007 10 16.09344 0 0
5:52 pm 17:52 Cloudy 75 24 66 19 74 74 NNW 16 26 29.74 1007 10 16.09344 0 0
6:52 pm 18:52 Cloudy 73 23 64 18 74 74 NNW 16 26 29.74 1007 10 16.09344 0 0
7:52 pm 19:52 Cloudy 72 22 64 18 78 78 N 12 19 29.74 1007 10 16.09344 0 0
8:52 pm 20:52 Cloudy 72 22 64 18 78 78 NNW 14 22 29.77 1008 10 16.09344 0 0
9:52 pm 21:52 Cloudy 72 22 64 18 78 78 NNW 13 20 29.77 1008 10 16.09344 0 0
10:52 pm 22:52 Cloudy 70 21 63 17 78 78 NNW 14 22 29.77 1008 10 16.09344 0.001 0.001
11:15 pm 23:15 Cloudy 70 21 63 17 78 78 NNW 15 24 29.77 1008 10 16.09344 0 0
11:52 pm 23:52 Cloudy 70 21 63 17 78 78 NNW 14 22 29.77 1008 10 16.09344 0 0

Powered by AerisWeather